Location: Kavul?ru
(16.6288°N, 80.5832°E)
Time: 15:51:51
(UTC+00:00)

SL-24 R/B - Pass Details

Date: 15 May 2026
Orbit: 501 x 976 km, 97.5° (Epoch: 10 June)

Event Time Altitude Azimuth Distance (km) Brightness Sun altitude
Rises 22:44:59 0° 2° (N) 2,732 7.8 -18.8°
Reaches altitude 10° 22:47:02 10° 356° (N) 1,888 6.8 -18.3°
Maximum altitude 22:50:59 49° 281° (WNW) 812 4.3 -17.5°
Enters shadow 22:52:49 30° 225° (SW) 1,166 4.9 -17.1°
